| time (UTC) | temp C | wind direction | speed KPH | gust KPH | rain 1hr cm | rain 24hr cm | rain mn cm | humidity % | barometer mb |
| 20260505130109 | 11 | 0 | 0.0 | 1.6 | 0.00 | 1.47 | 0.20 | 94 | 1014.1 |
| 20260505124558 | 11 | 0 | 0.0 | 0.0 | 0.00 | 1.47 | 0.20 | 94 | 1014.2 |
| 20260505123104 | 11 | 0 | 0.0 | 0.0 | 0.00 | 1.47 | 0.20 | 94 | 1014.1 |
| 20260505121559 | 11 | 0 | 0.0 | 0.0 | 0.00 | 1.47 | 0.20 | 93 | 1014.1 |
| 20260505120104 | 11 | 0 | 0.0 | 3.2 | 0.00 | 1.47 | 0.20 | 93 | 1014.2 |
| 20260505114559 | 11 | 0 | 0.0 | 0.0 | 0.00 | 1.47 | 0.20 | 93 | 1014.0 |
| 20260505113100 | 11 | 0 | 0.0 | 1.6 | 0.00 | 1.47 | 0.20 | 93 | 1013.8 |
| 20260505111552 | 11 | 0 | 0.0 | 1.6 | 0.00 | 1.47 | 0.20 | 93 | 1014.1 |
| 20260505110123 | 11 | 0 | 0.0 | 3.2 | 0.00 | 1.47 | 0.20 | 93 | 1013.7 |
| 20260505101611 | 11 | 0 | 0.0 | 0.0 | 0.03 | 1.47 | 0.20 | 93 | 1014.3 |
| 20260505100105 | 11 | 0 | 0.0 | 1.6 | 0.03 | 1.47 | 0.20 | 93 | 1014.3 |
| 20260505094636 | 11 | 0 | 0.0 | 0.0 | 0.03 | 1.47 | 0.20 | 93 | 1014.2 |
| 20260505093102 | 11 | 0 | 0.0 | 0.0 | 0.03 | 1.47 | 0.20 | 93 | 1014.1 |
| 20260505091559 | 11 | 0 | 0.0 | 0.0 | 0.03 | 1.45 | 0.18 | 93 | 1014.1 |
| 20260505090058 | 11 | 0 | 0.0 | 1.6 | 0.03 | 1.45 | 0.18 | 93 | 1014.3 |
| 20260505084558 | 11 | 0 | 0.0 | 0.0 | 0.08 | 1.45 | 0.18 | 93 | 1014.4 |
| 20260505083100 | 11 | 0 | 0.0 | 0.0 | 0.10 | 1.45 | 0.18 | 93 | 1014.8 |
| 20260505081559 | 11 | 0 | 0.0 | 1.6 | 0.13 | 1.42 | 0.15 | 93 | 1014.8 |
| 20260505080053 | 11 | 0 | 0.0 | 1.6 | 0.15 | 1.42 | 0.15 | 93 | 1014.7 |
| 20260505074554 | 11 | 0 | 0.0 | 0.0 | 0.15 | 1.37 | 0.10 | 93 | 1014.7 |
| 20260505073054 | 11 | 0 | 0.0 | 0.0 | 0.18 | 1.32 | 0.08 | 93 | 1014.9 |
| 20260505071553 | 11 | 0 | 0.0 | 1.6 | 0.15 | 1.30 | 0.03 | 92 | 1014.9 |
| 20260505070054 | 11 | 0 | 0.0 | 3.2 | 0.18 | 1.27 | 0.00 | 93 | 1015.2 |
| 20260505064551 | 11 | 0 | 0.0 | 3.2 | 0.28 | 1.22 | 1.22 | 93 | 1015.0 |
| 20260505063058 | 11 | 161 | 0.0 | 1.6 | 0.25 | 1.17 | 1.17 | 93 | 1015.1 |
| 20260505061603 | 11 | 0 | 0.0 | 3.2 | 0.25 | 1.14 | 1.14 | 92 | 1015.0 |
| 20260505060055 | 11 | 0 | 0.0 | 0.0 | 0.20 | 1.09 | 1.09 | 92 | 1015.2 |
| 20260505054558 | 11 | 0 | 0.0 | 0.0 | 0.08 | 0.94 | 0.94 | 92 | 1015.1 |
| 20260505053056 | 11 | 0 | 0.0 | 3.2 | 0.08 | 0.91 | 0.91 | 92 | 1015.1 |
| 20260505051559 | 11 | 0 | 0.0 | 0.0 | 0.13 | 0.89 | 0.89 | 92 | 1015.2 |
| 20260505041556 | 11 | 0 | 0.0 | 1.6 | 0.23 | 0.76 | 0.76 | 91 | 1015.4 |
| 20260505040104 | 11 | 68 | 0.0 | 3.2 | 0.18 | 0.64 | 0.64 | 91 | 1015.9 |
| 20260505034555 | 11 | 0 | 0.0 | 3.2 | 0.23 | 0.58 | 0.58 | 91 | 1015.8 |
| 20260505033052 | 11 | 0 | 0.0 | 1.6 | 0.23 | 0.56 | 0.56 | 91 | 1014.8 |
| 20260505031600 | 11 | 0 | 0.0 | 3.2 | 0.23 | 0.53 | 0.53 | 90 | 1014.3 |
| 20260505030059 | 11 | 0 | 0.0 | 4.8 | 0.20 | 0.46 | 0.46 | 90 | 1014.4 |
| 20260505024555 | 11 | 265 | 0.0 | 8.0 | 0.10 | 0.36 | 0.36 | 90 | 1014.4 |
| 20260505023051 | 11 | 0 | 0.0 | 4.8 | 0.10 | 0.33 | 0.33 | 89 | 1014.5 |
| 20260505021556 | 11 | 0 | 0.0 | 1.6 | 0.10 | 0.30 | 0.30 | 89 | 1014.7 |
| 20260505020054 | 11 | 0 | 0.0 | 1.6 | 0.05 | 0.25 | 0.25 | 89 | 1014.8 |
| 20260505014606 | 12 | 0 | 0.0 | 3.2 | 0.08 | 0.25 | 0.25 | 88 | 1014.9 |
| 20260505013051 | 12 | 0 | 0.0 | 1.6 | 0.08 | 0.23 | 0.23 | 88 | 1015.1 |
| 20260505011554 | 12 | 0 | 0.0 | 0.0 | 0.08 | 0.20 | 0.20 | 87 | 1015.3 |
| 20260505010056 | 12 | 0 | 0.0 | 1.6 | 0.10 | 0.20 | 0.20 | 87 | 1015.3 |
| 20260505004556 | 12 | 0 | 0.0 | 4.8 | 0.10 | 0.18 | 0.18 | 86 | 1015.2 |
| 20260505003054 | 12 | 0 | 0.0 | 1.6 | 0.08 | 0.15 | 0.15 | 87 | 1015.3 |
| 20260505001600 | 12 | 0 | 0.0 | 1.6 | 0.08 | 0.13 | 0.13 | 86 | 1015.3 |
| 20260505000058 | 12 | 0 | 0.0 | 9.7 | 0.08 | 0.10 | 0.10 | 84 | 1015.2 |
| 20260504234554 | 12 | 0 | 0.0 | 4.8 | 0.08 | 0.08 | 0.08 | 83 | 1015.1 |
| 20260504233058 | 13 | 360 | 1.6 | 9.7 | 0.08 | 0.08 | 0.08 | 82 | 1015.1 |
| 20260504231553 | 13 | 0 | 0.0 | 4.8 | 0.05 | 0.05 | 0.05 | 83 | 1015.0 |
| 20260504230053 | 14 | 0 | 0.0 | 4.8 | 0.03 | 0.03 | 0.03 | 82 | 1015.0 |
| 20260504224559 | 15 | 0 | 1.6 | 9.7 | 0.00 | 0.00 | 0.00 | 77 | 1014.8 |
| 20260504223053 | 15 | 324 | 0.0 | 11.3 | 0.00 | 0.00 | 0.00 | 73 | 1015.0 |
| 20260504221558 | 15 | 307 | 0.0 | 14.5 | 0.00 | 0.00 | 0.00 | 71 | 1015.2 |
| 20260504214605 | 16 | 283 | 3.2 | 16.1 | 0.00 | 0.00 | 0.00 | 65 | 1014.8 |
| 20260504213058 | 17 | 246 | 3.2 | 16.1 | 0.00 | 0.00 | 0.00 | 62 | 1014.7 |
| 20260504211602 | 17 | 248 | 4.8 | 12.9 | 0.00 | 0.00 | 0.00 | 61 | 1014.7 |
| 20260504210104 | 17 | 201 | 1.6 | 14.5 | 0.00 | 0.00 | 0.00 | 59 | 1014.7 |
| 20260504204607 | 18 | 244 | 3.2 | 8.0 | 0.00 | 0.00 | 0.00 | 58 | 1014.8 |
| 20260504203122 | 18 | 302 | 4.8 | 14.5 | 0.00 | 0.00 | 0.00 | 57 | 1014.7 |
| 20260504201553 | 18 | 0 | 3.2 | 11.3 | 0.00 | 0.00 | 0.00 | 55 | 1014.7 |
| 20260504200054 | 18 | 259 | 3.2 | 11.3 | 0.00 | 0.00 | 0.00 | 56 | 1014.7 |
| 20260504194550 | 18 | 232 | 1.6 | 16.1 | 0.00 | 0.00 | 0.00 | 56 | 1014.8 |
| 20260504193058 | 18 | 246 | 3.2 | 9.7 | 0.00 | 0.00 | 0.00 | 57 | 1014.9 |
| 20260504191558 | 17 | 360 | 1.6 | 12.9 | 0.00 | 0.00 | 0.00 | 59 | 1015.0 |
| 20260504190057 | 17 | 360 | 3.2 | 8.0 | 0.00 | 0.00 | 0.00 | 59 | 1015.1 |
| 20260504184602 | 17 | 360 | 1.6 | 8.0 | 0.00 | 0.00 | 0.00 | 62 | 1015.1 |
| 20260504183103 | 17 | 298 | 3.2 | 8.0 | 0.00 | 0.00 | 0.00 | 62 | 1015.1 |
| 20260504181603 | 17 | 0 | 0.0 | 6.4 | 0.00 | 0.00 | 0.00 | 62 | 1015.0 |
| 20260504180117 | 17 | 360 | 3.2 | 8.0 | 0.00 | 0.00 | 0.00 | 64 | 1014.9 |
| 20260504174555 | 16 | 0 | 1.6 | 6.4 | 0.00 | 0.00 | 0.00 | 65 | 1015.0 |
| 20260504173108 | 16 | 0 | 0.0 | 6.4 | 0.00 | 0.00 | 0.00 | 70 | 1015.3 |
| 20260504171607 | 16 | 306 | 0.0 | 8.0 | 0.00 | 0.00 | 0.00 | 72 | 1015.3 |